Meteo Giornale » Osservazioni meteo Giappone » Futenma Marine Corps Air Facility
ore: 18:56 - Osservazioni Meteo Futenma Marine Corps Air Facility
Lat. 26° 16' N Lon. 127° 45' E Alt. 75 metri s.l.m.
28 °C
Molto Nuvoloso
Temp. 24 Ore
0 °C
31 °C
Est
25.9 Km/h
Dew point 26 °C
Umidità 88 %
Visibilità 11 Km
Il sole sorge alle ore 06:08
Il sole tramonta alle ore 18:49
| Data e Ora | Cielo e Fenomeni | T °C | DP °C | Um. % | Pres. hPa | Vis. km | Vento km/h | |
|---|---|---|---|---|---|---|---|---|
| Oggi h: 18:56 | Molto Nuvoloso | 28 | 26 | 88 | 1004 | 11 | E 25.9 | |
| Oggi h: 18:51 | Coperto | 28 | 26 | 88 | 1004 | 11 | E 25.9 | |
| Oggi h: 17:56 | Molto Nuvoloso | 28 | 26 | 88 | 1004 | 11 | E 33.3 | |
| Oggi h: 16:13 | Molto Nuvoloso | 29 | 26 | 83 | 1004 | 11 | E 29.6 | |
| Oggi h: 16:03 | Coperto | 28 | 26 | 88 | 1004 | 6 | E 27.8 | |
| Oggi h: 15:56 | Molto Nuvoloso | 28 | 27 | 94 | 1004 | 11 | E 27.8 | |
| Oggi h: 15:40 | Coperto | 28 | 27 | 94 | 1004 | 11 | E 27.8 | |
| Oggi h: 15:15 | Pioggia Foschia | 27 | 26 | 94 | 1004 | 2 | E/NE 31.5 | |
| Oggi h: 14:56 | Coperto | 29 | 26 | 83 | 1004 | 11 | E/NE 29.6 | |
| Oggi h: 14:41 | Coperto | 28 | 26 | 88 | 1004 | 11 | E/NE 25.9 | |
| Oggi h: 14:12 | Pioggia Foschia | 28 | 26 | 88 | 1004 | 6 | E 24 | |
| Oggi h: 14:03 | Coperto | 28 | 26 | 88 | 1004 | 11 | E 27.8 | |
| Oggi h: 13:56 | Molto Nuvoloso | 28 | 26 | 88 | 1004 | 11 | E 31.5 | |
| Oggi h: 13:05 | Coperto | 29 | 26 | 83 | 1005 | 10 | E 25.9 | |
| Oggi h: 12:56 | Molto Nuvoloso | 30 | 26 | 79 | 1005 | 10 | E/NE 31.5 | |
| Oggi h: 12:25 | Molto Nuvoloso | 31 | 26 | 74 | 1005 | 10 | E 27.8 | |
| Oggi h: 12:03 | Molto Nuvoloso | 30 | 25 | 74 | 1005 | 10 | E 33.3 | |
| Oggi h: 11:56 | Molto Nuvoloso | 30 | 25 | 74 | 1005 | 10 | E/NE 33.3 | |
| Oggi h: 10:56 | Coperto | 29 | 25 | 79 | 1005 | 10 | E/NE 25.9 | |
| Oggi h: 10:38 | Coperto | 29 | 25 | 79 | 1005 | 10 | E 31.5 | |
| Oggi h: 10:13 | Molto Nuvoloso | 29 | 25 | 79 | 1005 | 10 | E/NE 27.8 | |
| Oggi h: 09:56 | Molto Nuvoloso | 28 | 26 | 88 | 1005 | 10 | E/NE 29.6 | |
| Oggi h: 09:14 | Coperto | 28 | 24 | 78 | 1005 | 10 | E/NE 29.6 | |
| Oggi h: 08:56 | Molto Nuvoloso | 28 | 24 | 78 | 1005 | 10 | E 31.5 | |
| Oggi h: 08:42 | Molto Nuvoloso | 29 | 25 | 79 | 1005 | 10 | E 25.9 | |
| Oggi h: 08:03 | Molto Nuvoloso | 28 | 25 | 83 | 1005 | 10 | E 31.5 | |
| Oggi h: 07:56 | Nuvoloso | 28 | 25 | 83 | 1005 | 10 | E/NE 29.6 | |
| Oggi h: 06:56 | Poco Nuvoloso | 28 | 24 | 78 | 1004 | 10 | E 29.6 | |
| Oggi h: 05:35 | Molto Nuvoloso | 27 | 24 | 83 | 1004 | 0 | E 25.9 | |
| Oggi h: 05:24 | Molto Nuvoloso | 27 | 25 | 88 | 1004 | 0 | E 29.6 | |
| Oggi h: 04:56 | Molto Nuvoloso | 27 | 24 | 83 | 1004 | 0 | E 31.5 | |
| Oggi h: 03:56 | Molto Nuvoloso | 27 | 25 | 88 | 1005 | 0 | E/NE 29.6 | |
| Oggi h: 03:29 | Nuvoloso | 28 | 25 | 83 | 1005 | 0 | E 29.6 | |
| Oggi h: 03:14 | Molto Nuvoloso | 27 | 25 | 88 | 1005 | 0 | E 22.2 | |
| Oggi h: 02:20 | Coperto | 27 | 25 | 88 | 1005 | 0 | E/NE 24 | |
| Oggi h: 01:56 | Coperto | 27 | 25 | 88 | 1005 | 0 | E 31.5 | |
| Oggi h: 01:48 | Coperto | 27 | 25 | 88 | 1005 | 0 | E/NE 27.8 | |
| Oggi h: 00:56 | Molto Nuvoloso | 27 | 25 | 88 | 1006 | 0 | E 22.2 | |
| Oggi h: 00:15 | Molto Nuvoloso | 0 | 0 | 83 | 1006 | 0 | E 27.8 | |
| Ieri h: 23:56 | Molto Nuvoloso | 27 | 25 | 88 | 1006 | 11 | E/NE 24 | |
| Ieri h: 22:56 | Molto Nuvoloso | 28 | 25 | 83 | 1006 | 11 | E 25.9 | |
| Ieri h: 22:03 | Molto Nuvoloso | 28 | 25 | 83 | 1006 | 0 | E 22.2 | |
| Ieri h: 21:56 | Molto Nuvoloso | 28 | 25 | 83 | 1006 | 11 | E 24 | |
| Ieri h: 20:56 | Molto Nuvoloso | 28 | 25 | 83 | 1006 | 11 | E/NE 22.2 | |
| Ieri h: 20:03 | Molto Nuvoloso | 28 | 25 | 83 | 1006 | 11 | E 25.9 | |
| Ieri h: 19:56 | Molto Nuvoloso | 28 | 25 | 83 | 1005 | 11 | E 25.9 | |



